Burley, ID

10:06 AM MDT on October 23, 2019 (GMT -0600)
Burley Municipal

Weather History for KBYI - September, 2019

Change the Weather History Date:

Friday, September 20, 2019

  Actual Average Record
Temperature  
Mean Temperature 52 °F 57 °F  
Max Temperature 58 °F 72 °F 90 °F (1918)
Min Temperature 46 °F 42 °F 27 °F (1983)
Degree Days  
Heating Degree Days 13 8  
Month to date heating degree days 85 109  
Since 1 July heating degree days 106 166  
Cooling Degree Days 0 0  
Month to date cooling degree days 50 19  
Year to date cooling degree days 416 363  
Growing Degree Days 2 (Base 50)    
Moisture  
Dew Point 40 °F    
Average Humidity 65    
Maximum Humidity 82    
Minimum Humidity 47    
Precipitation  
Precipitation 0.00 in 0.02 in 0.69 in (1963)
Month to date precipitation 0.47 0.34  
Year to date precipitation 8.68 7.10  
Sea Level Pressure  
Sea Level Pressure 29.93 in    
Wind  
Wind Speed 12 mph (WSW)    
Max Wind Speed 22 mph    
Max Gust Speed 27 mph    
Visibility 10 miles    
Events      
T = Trace of Precipitation, MM = Missing Value Source: NWS Daily Summary

Daily Weather History Graph

Daily Weather History Graph

Search for Another Location

Airport or City:

Astronomy

Sep. 20, 2019 Rise Set
Actual Time 7:20 AM MDT 7:36 PM MDT
Civil Twilight 6:51 AM MDT 8:04 PM MDT
Nautical Twilight 6:18 AM MDT 8:37 PM MDT
Astronomical Twilight 5:44 AM MDT 9:11 PM MDT
Moon 11:21 PM MDT (9/20) 1:36 PM MDT (9/20)
Length of Visible Light 13h 12m
Length of Day
12h 16m
Waning Gibbous, 64% of the Moon is Illuminated
Sep 20
Waning Gibbous
Sep 21
Last Quarter
Sep 28
New
Oct 5
First Quarter
Oct 13
Full

Hourly Weather History & Observations

Time (MDT) Temp. Dew Point Humidity Pressure Visibility Wind Dir Wind Speed Gust Speed Precip Events Conditions
12:53 AM 46.9 °F 41.0 °F 80% 29.87 in 10.0 mi SW 6.9 mph - N/A   Mostly Cloudy
1:53 AM 46.9 °F 39.9 °F 77% 29.88 in 10.0 mi SW 6.9 mph - N/A   Clear
2:53 AM 46.9 °F 41.0 °F 80% 29.89 in 10.0 mi WSW 9.2 mph - N/A   Mostly Cloudy
3:53 AM 48.0 °F 39.9 °F 74% 29.87 in 10.0 mi WSW 5.8 mph - N/A   Overcast
4:53 AM 48.0 °F 39.9 °F 74% 29.87 in 10.0 mi West 4.6 mph - N/A   Overcast
5:53 AM 48.0 °F 39.9 °F 74% 29.87 in 10.0 mi West 9.2 mph - N/A   Overcast
6:53 AM 48.0 °F 39.9 °F 74% 29.87 in 10.0 mi West 8.1 mph 17.3 mph N/A   Overcast
7:28 AM 46.9 °F 41.0 °F 80% 29.92 in 10.0 mi West 12.7 mph 19.6 mph N/A   Overcast
7:53 AM 46.9 °F 41.0 °F 80% 29.88 in 10.0 mi West 6.9 mph - N/A   Overcast
8:53 AM 48.0 °F 41.0 °F 77% 29.89 in 10.0 mi West 13.8 mph - N/A   Overcast
9:53 AM 48.9 °F 41.0 °F 74% 29.90 in 10.0 mi West 13.8 mph - N/A   Overcast
10:53 AM 50.0 °F 41.0 °F 71% 29.91 in 10.0 mi West 13.8 mph - N/A   Overcast
11:53 AM 51.1 °F 42.1 °F 71% 29.92 in 10.0 mi WSW 18.4 mph 24.2 mph N/A   Overcast
12:53 PM 50.0 °F 41.0 °F 71% 29.93 in 10.0 mi WSW 18.4 mph - N/A   Overcast
1:53 PM 53.1 °F 41.0 °F 64% 29.93 in 10.0 mi WSW 18.4 mph 25.3 mph N/A   Overcast
2:25 PM 55.0 °F 43.0 °F 64% 29.97 in 10.0 mi WSW 17.3 mph 23.0 mph N/A   Overcast
2:53 PM 55.0 °F 43.0 °F 64% 29.93 in 10.0 mi WSW 18.4 mph - N/A   Overcast
3:53 PM 57.0 °F 41.0 °F 55% 29.92 in 10.0 mi WSW 15.0 mph 23.0 mph N/A   Overcast
4:53 PM 57.0 °F 39.0 °F 51% 29.93 in 10.0 mi West 17.3 mph 24.2 mph N/A   Mostly Cloudy
5:53 PM 57.0 °F 37.9 °F 49% 29.94 in 10.0 mi West 13.8 mph 19.6 mph N/A   Clear
6:53 PM 57.0 °F 37.0 °F 47% 29.94 in 10.0 mi West 12.7 mph - N/A   Overcast
7:53 PM 51.1 °F 42.1 °F 71% 29.99 in 10.0 mi West 5.8 mph - N/A   Mostly Cloudy
8:53 PM 48.0 °F 43.0 °F 83% 30.01 in 10.0 mi SSW 6.9 mph - N/A   Scattered Clouds
9:53 PM 51.1 °F 39.9 °F 66% 30.01 in 10.0 mi SSW 9.2 mph - N/A   Overcast
10:53 PM 51.1 °F 37.0 °F 59% 30.01 in 10.0 mi SW 10.4 mph - N/A   Overcast
11:53 PM 50.0 °F 36.0 °F 59% 30.03 in 10.0 mi SW 9.2 mph - N/A   Mostly Cloudy